Location: Bishop�s Knoyle
(51.0728°N, 2.1714°W)
Time: 05:43:32
(UTC+00:00)

CENTAUR R/B - Pass Details

Date: 21 January 2021
Orbit: 742 x 1446 km, 63.5° (Epoch: 02 March)

Event Time Altitude Azimuth Distance (km) Brightness Sun altitude
Rises 06:27:09 0° 184° (S) 3,384 5.5 -14.2°
Reaches altitude 10° 06:29:41 10° 174° (S) 2,535 4.9 -13.8°
Maximum altitude 06:34:49 32° 114° (ESE) 1,625 4.5 -13.1°
Drops below altitude 10° 06:40:45 10° 55° (NE) 2,963 5.6 -12.2°
Sets 06:43:57 0° 46° (NE) 4,047 6.1 -11.7°
